Regional Weather Roundup
Issued by NWS

Home | Current Version | Previous Version | Text Only | Print | Product List | Glossary Off
Versions: 1 2 3 4 5 6 7 8 9 10 11 12 13 14 15 16 17 18 19 20 21 22 23 24 25 26 27 28 29 30 31 32 33 34 35 36 37 38 39 40 41 42 43 44 45 46 47 48 49 50

593
ASUS43 KMPX 110310
RWRMN
WEATHER ROUNDUP FOR MINNESOTA
NATIONAL WEATHER SERVICE TWIN CITIES/CHANHASSEN MN
900 PM CST WED FEB 10 2016


NOTE: "FAIR" INDICATES FEW OR NO CLOUDS BELOW 12,000 FEET WITH NO
SIGNIFICANT WEATHER AND/OR OBSTRUCTIONS TO VISIBILITY. N/A MEANS
CURRENT SKY AND/OR WEATHER CONDITIONS ARE NOT AVAILABLE.

MNZ060>063-068>070-110400-
   Twin Cities Metro

CITY           SKY/WX    TMP DP  RH WIND       PRES   REMARKS
TWIN CITIES    CLOUDY    11  -2  56 N5        30.24R WCI   3
ST PAUL        CLOUDY    10  -2  58 NW6       30.26R WCI   0
CRYSTAL        CLOUDY    11  -4  51 N5        30.23R WCI   3
BLAINE         CLOUDY    10  -2  56 N5        30.23R WCI   2
LAKEVILLE      CLOUDY     9  -2  61 CALM      30.23R
EDEN PRAIRIE   CLOUDY    12  -3  51 NW3       30.23R
SOUTH ST PAUL  CLOUDY    11  -2  56 NE3       30.25R
LAKE ELMO      CLOUDY    10   0  61 CALM      30.24R
$$
MNZ001>005-007-008-013>017-022>024-027-028-110400-
   Northwest Minnesota

CITY           SKY/WX    TMP DP  RH WIND       PRES   REMARKS
BEMIDJI        CLOUDY    -3  -8  77 CALM      30.23R
HALLOCK        CLOUDY     0  -6  78 CALM      30.30S
ROSEAU         CLOUDY    -8 -15  71 CALM      30.27S
WARROAD        CLOUDY   -11 -17  77 W3        30.27R
THIEF RVR FALL CLOUDY     3  -9  55 CALM      30.27S
CROOKSTON      PTCLDY     7   0  72 N6        30.31R WCI  -3
FOSSTON        CLOUDY    -2  -9  71 CALM      30.26R
DETROIT LAKES  CLOUDY    10   5  79 NW6       30.23R WCI   1
MOORHEAD       CLOUDY    10   3  72 N8        30.27S WCI  -1
PARK RAPIDS    CLOUDY     7  -5  57 NE5       30.20S WCI  -2
MAHNOMEN       CLOUDY     4  -4  69 NE8       30.24R WCI  -9
$$
MNZ006-009>011-018-025>026-110400-
   North Central Minnesota

CITY           SKY/WX    TMP DP  RH WIND       PRES   REMARKS
BAUDETTE       CLOUDY   -19 -26  70 CALM      30.23S
FLAG ISLAND    CLOUDY    -8 -13  77 CALM      30.25S
INTL FALLS     CLEAR    -19 -23  81 NW5       30.22S WCI -32
WASKISH        CLOUDY    -9 -15  77 CALM      30.24S
LONGVILLE      MOCLDY     1  -8  66 CALM      30.22R
GRAND RAPIDS   CLEAR      0  -9  65 N7        30.20S WCI -13
CRANE LAKE     CLOUDY   -18 -24  76 CALM      30.23F
ORR            CLOUDY    -9 -17  70 CALM      30.16F
COOK           CLOUDY   -15 -18  84 CALM      30.20F
WALKER         FAIR       1  -8  66 N6        30.22R WCI -11
$$
MNZ012-019>021-037-110400-
   Northeast Minnesota

CITY           SKY/WX    TMP DP  RH WIND       PRES   REMARKS
DULUTH         CLEAR      1 -10  60 N14       30.15S WCI -17
ELY            CLEAR     -9 -15  77 W3        30.17F
HIBBING        CLOUDY    -7 -13  75 N9        30.19S WCI -24
EVELETH        CLOUDY    -6 -13  71 CALM      30.19S
DULUTH HARBOR  CLEAR      9  -4  56 N9        30.25R WCI  -5
TWO HARBORS    CLEAR      3  -8  60 N5        30.15F WCI  -6
SILVER BAY     CLEAR      1  -8  66 NW7       30.15S WCI -11
GRAND MARAIS     N/A      3  -7  63 VRB7G20   30.17S WCI  -9
G MARAIS ARPRT CLEAR     -6 -13  71 NW14G22   30.06R WCI -26
$$
MNZ029>031-032-039>041-046>048-054>057-064-110400-
   West Central Minnesota

CITY           SKY/WX    TMP DP  RH WIND       PRES   REMARKS
FERGUS FALLS   CLOUDY    10   1  67 N3        30.27S
WHEATON        CLOUDY     9   5  85 W3        30.28R
MORRIS         CLOUDY     9   3  78 NW5       30.22S WCI   0
ALEXANDRIA     CLOUDY    10  -2  58 N6        30.21R WCI   0
ELBOW LAKE     MOCLDY    10   1  67 NE3       30.24R
WADENA         CLOUDY     9  -2  61 CALM      30.21R
GLENWOOD       CLOUDY    10   1  67 N3        30.22R
APPLETON       CLOUDY    12   7  79 N3        30.24S
BENSON         CLOUDY    10   1  67 CALM      30.24R
ORTONVILLE     CLOUDY    12   5  73 N3        30.24R
MADISON        CLOUDY    14   7  73 N3        30.24S
WILLMAR        CLOUDY    12   3  67 N5        30.24R WCI   4
$$
MNZ033>034-036-042>043-049>051-058-059-110400-
   Central Minnesota

CITY           SKY/WX    TMP DP  RH WIND       PRES   REMARKS
ST CLOUD       CLOUDY    11  -5  48 N5        30.23R WCI   3
SAUK CENTRE    CLOUDY    10  -2  57 N3        30.22R
PAYNESVILLE    CLOUDY    10   0  64 CALM      30.23R
AITKIN         CLEAR      5  -9  51 CALM      30.20S
PINE RIVER     MOCLDY     3  -6  66 CALM      30.24R
BRAINERD       CLOUDY     5  -5  63 N6        30.21S WCI  -6
STAPLES        CLOUDY     7  -6  56 CALM      30.21S
LONG PRAIRIE   CLOUDY    10  -2  56 N3        30.22R
LITTLE FALLS   CLOUDY    10  -6  48 CALM      30.23S
LITCHFIELD     CLOUDY    12   1  62 CALM      30.23R
BUFFALO        CLOUDY    11  -4  52 CALM      30.24S
MAPLE LAKE     CLOUDY    12   1  62 CALM      30.23S
$$
MNZ037-044-045-052-053-110400-
   East Central Minnesota

CITY           SKY/WX    TMP DP  RH WIND       PRES   REMARKS
PRINCETON      CLOUDY    10  -2  56 CALM      30.23R
MORA           CLOUDY     9  -4  56 CALM      30.23F
CAMBRIDGE      PTCLDY    10  -2  56 CALM      30.22R
RUSH CITY      CLOUDY     8  -4  57 CALM      30.23S
MOOSE LAKE     PTCLDY     3 -11  51 N3        30.19F
HINCKLEY       FAIR       9  -6  52 NW5       30.22S WCI   0
CLOQUET        CLEAR      1  -9  60 NW8       30.18R WCI -12
MCGREGOR       CLEAR      5  -6  61 NW5       30.21S WCI  -4
$$
MNZ071>073-080-081-089-090-097-098-110400-
   Southwest Minnesota

CITY           SKY/WX    TMP DP  RH WIND       PRES   REMARKS
MONTEVIDEO     CLOUDY    12   7  79 NE3       30.25S
GRANITE FALLS  CLOUDY    15   8  71 N3        30.25S
CANBY          CLOUDY    16  11  83 N5        30.24S WCI   8
MARSHALL       CLOUDY    12   7  80 N7        30.23R WCI   1
REDWOOD FALLS  CLOUDY    13   3  64 CALM      30.23S
OLIVIA         CLOUDY    16   5  62 N5        30.23S WCI   9
PIPESTONE      CLOUDY    12   1  62 E7        30.15F WCI   2
WINDOM         CLOUDY    10   3  72 N7        30.19S WCI   0
WORTHINGTON    CLOUDY    10   3  72 NE10      30.18S WCI  -3
JACKSON        CLOUDY    12   3  67 N5        30.19R WCI   4
TRACY          CLOUDY    13   7  76 N5        30.21R WCI   5
SLAYTON        CLOUDY    10   6  85 CALM      30.18S
$$
MNZ065>067-074>077-082>085-091>093-110400-
   South Central Minnesota

CITY           SKY/WX    TMP DP  RH WIND       PRES   REMARKS
MANKATO        CLOUDY    10   1  67 N6        30.22R WCI   1
NEW ULM        CLOUDY    12   1  62 NE3       30.23R
ST JAMES       CLOUDY    10   7  85 CALM      30.24R
FAIRMONT       CLOUDY     9   1  72 NW5       30.19S WCI   0
GLENCOE        CLOUDY    13   2  62 N5        30.23S WCI   5
FARIBAULT        N/A      9  -2  61 CALM      30.22R
OWATONNA       CLOUDY     9  -2  61 NE5       30.20R WCI   0
WASECA         CLOUDY    12   5  73 NE5       30.22R WCI   4
ALBERT LEA     CLOUDY     9   0  66 CALM      30.19R
$$
MNZ078>079-086>088-094>096-110400-
   Southeast Minnesota

CITY           SKY/WX    TMP DP  RH WIND       PRES   REMARKS
ROCHESTER      CLOUDY     6  -3  66 N7        30.18R WCI  -6
RED WING       CLOUDY     9  -4  56 CALM      30.23R
STANTON        CLOUDY    10  -1  62 CALM      30.23R
DODGE CENTER   CLOUDY     5  -2  72 N8        30.18R WCI  -8
WINONA         CLOUDY    10   1  67 N3        30.24R
AUSTIN         CLOUDY     7   0  72 N5        30.18R WCI  -2
PRESTON        CLOUDY     5  -4  66 N6        30.18R WCI  -5
$$
ABBREVIATIONS USED IN REMARKS
   TC - TEMPERATURES IN CELSIUS
  WCI - WIND CHILL INDEX
   HX - HEAT INDEX
  VSB - VISIBILITY
$$




USA.gov is the U.S. government's official web portal to all federal, state and local government web resources and services.